Bishopton, United Kingdom

7:14 PM GMT on February 22, 2017 (GMT +0000)
Glasgow

Weather History for EGPF - July, 2013

Change the Weather History Date:

Thursday, July 4, 2013

  Actual Average Record
Temperature  
Mean Temperature 58 °F -  
Max Temperature 62 °F 65 °F 75 °F (2011)
Min Temperature 53 °F 49 °F 44 °F (2011)
Degree Days  
Heating Degree Days 8    
Growing Degree Days 8 (Base 50)    
Moisture  
Dew Point 53 °F    
Average Humidity 80    
Maximum Humidity 100    
Minimum Humidity 63    
Precipitation  
Precipitation 0.00 in - - ()
Sea Level Pressure  
Sea Level Pressure 29.89 in    
Wind  
Wind Speed 10 mph ()    
Max Wind Speed 21 mph    
Max Gust Speed 30 mph    
Visibility 6.0 miles    
Events Rain    
Averages and records for this station are not official NWS values.
T = Trace of Precipitation, MM = Missing Value Source: Averaged Metar Reports

Daily Weather History Graph

Daily Weather History Graph

Search for Another Location

Airport or City:

Trip Planner

Search our weather history database for the weather conditions in past years. The results will help you decide how hot, cold, wet, or windy it might be!

Date:

Astronomy

Jul. 04, 2013 Rise Set
Actual Time 4:39 AM BST 10:03 PM BST
Civil Twilight 3:40 AM BST 11:03 PM BST
Nautical Twilight 1:54 AM BST 12:49 AM BST
Astronomical Twilight Sun does not rise Sun does not rise
Moon 2:07 AM BST (7/4) 6:40 PM BST (7/4)
Length of Visible Light 19h 23m
Length of Day
17h 23m
Waning Crescent, 13% of the Moon is Illuminated
Jul 4
Waning Crescent
Jul 8
New
Jul 16
First Quarter
Jul 22
Full
Jul 29
Last Quarter

Hourly Weather History & Observations

Time (BST) Temp. Dew Point Humidity Pressure Visibility Wind Dir Wind Speed Gust Speed Precip Events Conditions
12:20 AM 57.2 °F 55.4 °F 94% 29.80 in 4.3 mi Variable 3.5 mph - N/A   Light Drizzle
12:50 AM 57.2 °F 55.4 °F 94% 29.77 in 6.2 mi SE 5.8 mph - N/A   Mostly Cloudy
1:20 AM 57.2 °F 55.4 °F 94% 29.77 in 6.2 mi Variable 2.3 mph - N/A Rain Light Rain
1:50 AM 59.0 °F 55.4 °F 88% 29.77 in 6.2 mi NNE 3.5 mph - N/A   Mostly Cloudy
2:20 AM 59.0 °F 55.4 °F 88% 29.77 in 6.2 mi West 4.6 mph - N/A   Overcast
2:50 AM 60.8 °F 57.2 °F 88% 29.74 in 6.2 mi SSW 9.2 mph - N/A   Overcast
3:20 AM 60.8 °F 57.2 °F 88% 29.74 in 6.2 mi South 10.4 mph - N/A   Overcast
3:50 AM 60.8 °F 57.2 °F 88% 29.74 in 5.0 mi SSW 6.9 mph - N/A Rain Light Rain
4:20 AM 60.8 °F 59.0 °F 94% 29.71 in 6.2 mi SSW 11.5 mph - N/A Rain Light Rain
4:50 AM 60.8 °F 59.0 °F 94% 29.71 in 6.2 mi SSW 10.4 mph - N/A   Light Drizzle
5:20 AM 60.8 °F 59.0 °F 94% 29.71 in 6.2 mi SW 12.7 mph - N/A   Overcast
5:50 AM 60.8 °F 59.0 °F 94% 29.71 in 6.2 mi SSW 12.7 mph - N/A   Mostly Cloudy
6:20 AM 60.8 °F 59.0 °F 94% 29.71 in - SW 15.0 mph - N/A   Drizzle
6:50 AM 59.0 °F 57.2 °F 94% 29.71 in 1.4 mi WSW 12.7 mph - N/A Rain Rain
7:20 AM 57.2 °F 57.2 °F 100% 29.71 in 6.2 mi South 12.7 mph - N/A Rain Light Rain
7:50 AM 59.0 °F 57.2 °F 94% 29.74 in 6.2 mi SW 10.4 mph - N/A Rain Light Rain
8:20 AM 59.0 °F 57.2 °F 94% 29.74 in 6.2 mi SW 10.4 mph - N/A Rain Light Rain
8:50 AM 59.0 °F 57.2 °F 94% 29.74 in 6.2 mi WSW 6.9 mph - N/A   Scattered Clouds
9:20 AM 60.8 °F 59.0 °F 94% 29.77 in 6.2 mi SW 13.8 mph - N/A   Scattered Clouds
9:50 AM 60.8 °F 57.2 °F 88% 29.77 in 5.6 mi WSW 18.4 mph - N/A Rain Light Rain Showers
10:20 AM 59.0 °F 53.6 °F 82% 29.80 in 6.2 mi West 16.1 mph - N/A   Mostly Cloudy
10:50 AM 59.0 °F 53.6 °F 82% 29.83 in 6.2 mi West 12.7 mph - N/A   Mostly Cloudy
11:20 AM 60.8 °F 50.0 °F 68% 29.83 in 6.2 mi West 15.0 mph - N/A   Mostly Cloudy
11:50 AM 62.6 °F 51.8 °F 68% 29.86 in 6.2 mi WSW 20.7 mph - N/A   Scattered Clouds
12:20 PM 59.0 °F 50.0 °F 72% 29.86 in 6.2 mi West 17.3 mph - N/A   Mostly Cloudy
12:50 PM 60.8 °F 50.0 °F 68% 29.89 in 6.2 mi West 16.1 mph - N/A   Scattered Clouds
1:20 PM 60.8 °F 51.8 °F 72% 29.89 in 6.2 mi West 19.6 mph - N/A   Scattered Clouds
1:50 PM 57.2 °F 50.0 °F 77% 29.92 in 6.2 mi WSW 20.7 mph - N/A   Mostly Cloudy
2:20 PM 59.0 °F 48.2 °F 67% 29.95 in 6.2 mi West 18.4 mph - N/A   Mostly Cloudy
2:50 PM 59.0 °F 48.2 °F 67% 29.95 in 6.2 mi West 19.6 mph - N/A   Mostly Cloudy
3:20 PM 59.0 °F 48.2 °F 67% 29.95 in 6.2 mi WSW 18.4 mph - N/A   Mostly Cloudy
3:50 PM 59.0 °F 48.2 °F 67% 29.98 in 6.2 mi West 18.4 mph - N/A   Mostly Cloudy
4:20 PM 59.0 °F 48.2 °F 67% 29.98 in 6.2 mi West 16.1 mph - N/A   Mostly Cloudy
4:50 PM 60.8 °F 48.2 °F 63% 29.98 in 6.2 mi West 15.0 mph - N/A   Mostly Cloudy
5:20 PM 59.0 °F 48.2 °F 67% 30.01 in 6.2 mi WSW 20.7 mph - N/A Rain Light Rain
5:50 PM 60.8 °F 48.2 °F 63% 30.01 in 6.2 mi WSW 18.4 mph 29.9 mph N/A Rain Light Rain Showers
6:20 PM 60.8 °F 50.0 °F 68% 30.04 in 6.2 mi WSW 13.8 mph - N/A   Mostly Cloudy
6:50 PM 60.8 °F 48.2 °F 63% 30.04 in 6.2 mi WSW 12.7 mph - N/A   Mostly Cloudy
7:20 PM 60.8 °F 48.2 °F 63% 30.06 in 6.2 mi WSW 12.7 mph - N/A   Mostly Cloudy
7:50 PM 59.0 °F 48.2 °F 67% 30.06 in 6.2 mi WSW 11.5 mph - N/A   Mostly Cloudy
8:20 PM 57.2 °F 48.2 °F 72% 30.06 in 6.2 mi WSW 12.7 mph - N/A   Mostly Cloudy
8:50 PM 57.2 °F 48.2 °F 72% 30.09 in 6.2 mi West 11.5 mph - N/A   Mostly Cloudy
9:20 PM 55.4 °F 48.2 °F 77% 30.09 in 6.2 mi WSW 13.8 mph - N/A   Mostly Cloudy
9:50 PM 55.4 °F 48.2 °F 77% 30.09 in 6.2 mi West 10.4 mph - N/A   Mostly Cloudy
10:20 PM 53.6 °F 48.2 °F 82% 30.12 in 6.2 mi West 12.7 mph - N/A   Scattered Clouds
10:50 PM 55.4 °F 48.2 °F 77% 30.12 in 6.2 mi West 12.7 mph - N/A   Light Drizzle
11:20 PM 55.4 °F 48.2 °F 77% 30.12 in 6.2 mi West 12.7 mph - N/A   Light Drizzle
11:50 PM 53.6 °F 46.4 °F 77% 30.15 in 6.2 mi West 12.7 mph - N/A   Mostly Cloudy